Theta_e
362 362 364 361 360 357 353 355 353 357 357 353 354 357 358 356 356 352 355 354 351 350 350 355 357 357 358 359 358 358 357 357 358 358 357 357 357 356 354 353 355 356 356
363 368 368 367 357 366 364 362 357 360 351 353 358 361 358 358 358 356 354 351 353 352 354 356 356 356 357 358 357 357 356 357 358 357 357 356 357 355 354 355 354 355 355
366 366 370 368 368 370 367 362 359 361 362 356 357 360 361 360 356 359 355 353 351 353 352 351 351 353 357 357 359 357 358 358 357 357 358 358 357 357 356 356 355 356 356
366 367 361 366 371 368 367 362 359 363 359 358 358 357 361 357 359 359 360 358 355 354 352 349 351 354 357 358 359 359 359 359 358 358 358 359 359 357 356 355 353 354 355
367 365 372 363 367 365 367 362 366 359 357 357 355 357 356 360 358 359 358 359 361 357 355 352 353 354 355 359 359 359 359 362 360 359 359 359 358 358 356 356 354 353 354
365 367 364 364 369 360 364 363 363 364 362 357 352 353 358 361 357 358 358 358 360 359 359 357 354 355 355 357 361 360 359 358 359 358 359 358 358 358 357 354 353 350 352
372 367 362 365 364 362 363 361 361 359 357 356 354 355 359 358 358 360 363 358 358 358 359 360 359 360 355 359 360 362 360 358 358 358 357 357 356 356 358 352 352 352 354
366 367 366 363 364 360 364 363 365 353 354 355 351 355 352 351 353 357 357 358 359 358 357 359 361 359 358 354 356 359 362 361 359 357 357 357 357 357 358 356 355 354 354
366 367 365 367 365 366 361 361 361 361 355 361 363 359 350 341 348 352 354 357 356 357 357 357 356 359 362 361 359 358 359 359 360 358 357 359 359 358 358 356 354 353 353
365 366 369 364 367 371 368 362 362 364 366 354 353 354 357 358 347 339 350 354 356 355 357 357 356 358 359 360 362 361 358 357 358 356 356 355 355 355 354 354 353 353 352
368 365 369 367 362 364 366 366 366 366 362 361 353 352 355 353 354 347 345 350 353 354 356 358 356 358 356 357 358 358 359 358 358 356 354 354 354 354 353 352 350 349 348
363 368 367 369 364 363 364 363 369 365 364 364 361 359 356 351 351 355 347 348 345 349 354 355 354 357 358 355 359 358 358 357 356 357 355 353 351 348 346 344 341 339 338
355 368 370 367 362 365 365 364 366 367 364 361 363 357 356 352 352 349 346 349 347 348 349 353 359 360 356 356 358 357 356 355 353 350 347 346 345 342 337 335 334 334 334
361 372 368 368 367 367 365 366 359 357 363 360 363 364 358 354 352 349 346 343 340 344 346 350 358 357 359 363 361 355 351 349 346 342 341 340 340 338 336 334 333 333 333
359 366 366 370 368 370 370 367 360 359 360 359 357 361 360 354 350 349 349 347 341 336 339 349 347 358 362 365 357 352 352 345 342 339 337 337 338 337 336 334 333 333 331
367 369 370 370 369 370 371 373 366 367 363 357 353 359 359 352 353 350 348 345 345 342 338 351 347 350 354 355 358 357 354 343 340 337 336 335 335 336 335 335 334 333 331
368 372 373 373 371 369 372 375 373 372 367 368 364 361 364 367 357 352 349 348 347 345 341 346 349 353 353 352 355 357 352 342 335 336 334 333 333 334 335 334 334 334 332
368 378 377 375 371 368 373 373 368 368 367 367 365 367 363 360 366 364 355 363 356 355 345 349 346 350 350 352 353 354 356 346 339 335 334 333 332 332 332 332 331 333 331
373 364 374 377 377 372 375 375 376 374 371 371 370 369 368 369 366 361 361 356 353 350 350 342 344 348 349 349 349 353 354 351 342 335 333 333 333 332 331 330 329 328 328
372 371 372 376 376 372 371 371 372 374 372 371 372 372 371 372 371 371 363 369 363 352 349 343 342 344 343 345 347 343 343 344 342 334 334 333 333 333 332 330 329 328 324
372 374 377 377 377 370 366 372 374 373 372 369 372 374 372 368 358 362 367 367 367 353 347 343 340 341 334 341 338 343 341 348 350 342 336 336 335 334 333 331 331 332 327
372 376 375 369 367 369 352 346 356 370 372 372 370 372 372 362 357 348 347 347 357 353 349 345 341 334 334 342 342 341 338 336 334 343 339 335 334 332 332 332 332 334 328
359 364 363 358 365 368 342 341 345 359 368 369 369 368 365 362 360 369 348 340 341 341 343 341 337 333 339 343 342 336 337 339 337 339 340 331 338 337 336 329 329 331 330
356 356 352 350 357 365 340 339 343 358 358 359 361 362 363 362 363 363 365 348 347 345 342 345 343 342 346 338 340 340 338 338 345 341 341 327 338 332 335 331 329 328 327
357 358 361 362 363 364 338 332 340 352 352 357 358 360 361 362 346 335 358 350 341 341 335 334 337 337 334 334 336 337 338 337 333 332 338 337 337 336 335 335 329 328 326
357 355 356 358 350 356 338 329 337 346 346 347 359 359 342 348 331 332 352 353 340 340 337 333 331 332 332 334 331 338 343 337 333 333 338 333 332 336 327 338 331 328 328
Wind_Speed
2 6 3 4 7 6 5 6 7 6 8 7 5 5 4 8 9 6 4 13 9 4 2 5 7 8 9 8 8 8 7 8 6 6 6 6 5 3 3 3 5 6 6
3 6 2 3 5 6 7 7 8 7 7 6 5 3 5 3 7 7 7 7 11 8 8 7 6 6 8 10 10 10 8 8 7 7 7 6 6 4 3 3 5 6 5
2 5 4 1 3 5 8 7 6 7 4 4 6 6 4 5 7 6 8 7 8 11 8 5 3 2 7 9 11 11 10 9 8 9 8 7 7 6 6 6 5 4 5
3 2 2 2 3 5 5 5 5 4 5 6 7 6 6 8 7 8 5 4 7 9 9 7 13 10 8 11 12 11 11 11 11 11 10 10 9 9 6 5 4 5 6
4 6 5 3 2 7 5 7 5 8 8 6 6 5 7 3 5 3 5 7 9 8 8 11 13 14 12 14 15 14 13 12 12 11 10 9 7 6 7 7 6 7 7
2 6 7 4 2 3 6 4 4 2 4 6 5 4 2 3 6 5 6 7 7 10 7 8 8 9 14 17 14 15 14 13 13 12 10 9 8 8 8 8 7 6 6
4 3 6 4 1 6 5 4 3 5 5 3 2 4 2 3 4 3 4 5 7 9 9 9 7 6 8 14 14 15 15 15 14 13 10 9 8 8 9 9 9 9 10
3 3 4 4 3 6 5 4 5 5 3 4 4 2 2 2 5 6 5 6 9 6 9 10 8 8 8 9 13 12 14 14 13 12 10 9 10 9 10 12 13 14 13
4 1 1 5 3 3 3 5 4 3 2 3 3 3 3 4 5 6 5 5 7 5 5 8 12 9 6 7 10 15 14 11 14 13 13 11 10 10 12 13 13 12 12
4 4 2 3 2 3 5 5 3 3 3 4 4 2 3 3 3 4 6 4 4 7 7 4 5 9 9 8 11 11 18 13 12 13 12 10 9 12 14 14 12 11 10
4 7 7 4 3 6 6 2 4 2 4 3 2 2 1 3 1 2 1 5 5 5 6 7 9 5 7 7 5 9 16 13 11 10 9 6 8 8 8 8 6 5 6
9 6 4 5 4 3 4 5 3 5 2 5 6 1 1 1 3 3 3 2 1 4 6 6 9 4 6 5 8 16 13 11 9 9 10 9 10 9 9 9 8 7 5
6 11 6 5 7 5 4 4 5 2 4 5 5 5 1 3 2 4 4 2 2 1 6 2 2 4 4 4 8 13 11 11 11 10 10 9 9 8 8 8 7 6 5
6 11 6 6 4 6 5 5 6 6 8 6 7 6 7 4 3 3 4 5 6 3 4 2 1 3 3 3 8 9 8 11 12 12 11 10 9 9 8 8 8 7 7
4 7 5 6 5 5 6 6 8 5 4 6 7 7 7 7 4 4 3 3 4 7 1 4 3 3 4 3 7 8 9 14 13 13 12 10 9 9 8 8 8 7 7
6 3 4 7 8 8 8 7 7 8 6 6 7 6 5 6 4 4 3 5 2 6 5 3 2 5 4 4 9 10 7 16 11 12 11 11 10 9 9 8 8 8 8
7 8 7 8 9 9 9 8 9 6 9 8 8 7 7 7 7 6 5 5 4 4 5 2 3 7 5 6 9 8 8 9 9 11 12 11 10 10 10 10 9 10 9
10 9 9 9 9 10 9 10 12 10 11 10 10 10 10 8 10 8 7 5 5 4 5 5 3 4 5 7 5 7 8 10 11 14 11 11 11 11 11 10 9 10 10
11 12 12 11 11 12 11 12 11 10 11 11 11 11 11 11 10 9 8 8 8 7 5 3 4 5 3 4 5 7 9 9 9 23 17 12 11 11 11 10 10 9 9
11 12 12 11 12 12 12 13 12 12 12 12 13 13 12 12 12 10 11 7 7 3 5 6 6 1 2 4 5 4 7 7 5 11 13 12 14 13 11 10 9 10 10
9 9 9 10 11 13 12 14 12 12 12 12 12 12 13 13 12 11 8 8 7 8 6 8 1 1 2 4 7 6 6 6 5 6 9 9 10 9 9 12 12 15 13
8 7 9 11 12 12 9 6 8 11 11 12 13 11 12 10 11 12 13 8 10 11 10 4 3 3 6 5 6 6 8 6 6 6 5 5 7 8 9 10 16 14 17
4 2 4 4 12 14 10 7 4 5 10 9 11 11 10 13 13 13 12 9 8 13 10 10 9 11 11 4 3 2 6 6 6 5 6 6 5 1 3 7 11 7 8
4 5 4 2 8 13 7 5 6 9 10 11 12 12 12 12 12 12 11 9 11 11 11 11 10 9 6 5 3 3 5 7 4 3 7 6 4 4 4 7 11 9 6
6 6 6 7 9 9 5 6 4 9 12 12 11 12 13 10 9 10 7 8 10 11 8 8 4 8 6 6 6 1 4 6 7 6 3 2 2 3 3 6 6 10 9
6 6 6 7 9 9 9 8 5 8 10 9 8 6 3 5 5 5 5 5 9 7 8 6 4 4 8 6 4 5 6 6 5 3 6 4 2 2 3 1 6 6 6
Wind_Direction
225 108 167 193 209 194 188 198 206 217 202 209 226 224 169 173 139 148 158 164 164 153 199 186 186 190 184 180 187 185 188 186 184 181 180 174 175 188 177 212 229 212 216
33 116 187 184 207 188 190 206 187 217 184 215 173 219 195 198 135 162 138 168 174 139 110 136 163 199 207 196 190 194 193 196 187 187 196 184 180 190 187 210 225 235 220
155 331 165 236 158 187 179 150 174 214 113 197 173 195 185 185 159 180 161 178 174 168 145 120 148 227 229 212 203 200 196 198 207 198 194 202 193 188 195 194 208 232 245
64 258 58 37 150 150 161 189 176 169 177 186 178 183 203 175 162 163 185 153 184 175 161 185 193 209 219 217 209 210 204 205 204 207 206 208 209 193 195 200 217 223 227
62 300 152 111 279 133 156 191 168 165 184 189 183 181 196 156 158 158 183 174 160 182 185 187 208 214 212 222 208 206 210 207 200 206 207 213 219 202 200 207 203 222 240
110 291 85 42 12 101 148 188 210 170 202 187 205 154 136 140 160 193 179 181 159 170 187 193 196 215 222 217 211 209 211 210 206 209 210 207 211 209 202 220 231 242 265
113 307 123 140 271 87 100 159 186 175 206 167 186 156 124 175 195 137 173 137 161 167 188 184 206 201 204 218 212 209 210 211 209 211 214 218 225 218 214 222 247 246 243
130 137 321 119 106 101 144 193 214 195 178 160 220 60 183 237 187 160 161 200 162 159 185 185 197 199 189 195 209 218 215 213 209 213 214 218 216 217 220 225 237 240 241
199 137 42 41 120 155 145 164 214 332 214 154 51 219 42 226 167 163 155 174 129 187 195 156 164 180 190 194 203 200 209 204 213 211 216 217 222 228 229 233 239 241 241
210 154 158 145 206 187 134 183 183 287 301 259 166 229 334 16 229 24 139 125 155 164 170 170 189 176 187 176 203 204 187 200 210 221 230 240 243 238 237 238 232 236 237
213 183 144 217 194 243 126 264 157 184 246 264 133 229 159 195 249 14 64 184 163 172 180 202 184 155 205 188 153 158 168 191 203 216 227 197 167 151 142 138 146 160 173
167 169 170 222 170 227 160 204 205 210 257 319 336 299 197 127 227 266 127 282 248 289 171 182 133 148 187 207 145 133 157 168 177 161 154 158 157 153 145 143 147 145 139
260 150 168 191 175 206 195 236 190 176 214 251 259 293 249 283 323 311 325 305 250 59 21 207 265 113 220 229 135 132 146 140 137 142 137 150 145 143 146 147 140 135 133
261 134 154 189 201 177 214 199 222 233 193 214 239 261 304 280 285 270 298 343 303 265 170 292 147 186 227 314 130 137 141 148 150 155 158 152 150 147 151 147 143 145 138
249 151 182 184 199 204 212 204 251 197 260 213 240 226 251 279 265 278 279 282 297 311 129 206 195 107 169 177 159 178 164 168 168 164 166 160 161 157 149 153 156 149 150
220 255 178 198 198 203 205 220 249 197 219 245 233 216 239 266 261 242 271 262 237 285 305 153 216 135 160 205 167 202 193 158 174 173 164 174 169 168 164 163 163 160 166
219 213 225 217 213 217 213 204 254 283 202 225 249 266 216 247 260 257 217 239 263 266 277 116 214 141 163 209 170 212 168 179 176 185 180 180 179 181 180 176 172 175 174
219 212 218 219 228 230 223 217 227 237 215 231 235 238 238 231 221 250 266 244 265 277 269 265 318 150 188 191 229 191 203 191 183 178 189 189 189 194 194 193 190 189 185
217 227 210 223 222 224 224 222 228 232 232 227 227 230 232 229 237 249 236 239 205 225 221 254 271 241 99 166 200 215 216 226 200 157 177 190 198 202 203 204 206 205 203
216 226 233 225 224 234 236 234 228 226 236 234 234 232 233 229 230 232 233 240 253 238 223 229 238 201 180 132 173 227 219 231 191 163 179 187 192 205 211 211 214 211 208
217 241 247 245 242 237 238 229 232 235 232 239 246 246 238 242 241 229 230 227 222 201 210 235 158 317 265 173 184 194 229 222 225 195 177 178 183 204 206 216 227 215 212
253 281 275 278 283 271 254 252 285 259 250 245 253 247 260 261 236 226 210 206 206 180 201 155 135 188 251 233 187 209 226 210 224 222 236 188 181 192 218 197 199 220 200
351 348 309 359 313 298 335 350 14 274 272 267 264 265 267 268 238 241 224 181 152 155 166 153 192 206 214 238 203 205 239 230 230 152 183 228 230 147 232 79 93 129 181
297 277 285 235 286 274 281 260 265 273 268 273 268 265 276 277 277 279 259 190 178 179 190 194 206 198 203 155 148 131 216 246 226 170 166 233 156 196 138 123 135 142 159
262 237 279 265 268 280 212 263 265 269 261 258 255 255 261 278 310 301 292 180 190 204 208 178 202 141 177 159 140 97 211 194 211 186 138 285 158 207 133 130 142 143 167
276 282 295 282 268 263 209 190 223 279 277 284 284 246 169 280 317 318 265 217 186 190 156 175 152 174 197 211 268 223 197 216 230 138 154 197 239 193 155 191 147 165 175